When you browse on this site, cookies collect data to enhance your experience and personalize the content and advertising you see.
Visit our Privacy Policy to learn more. By continuing to use the site, you agree to this use of cookies and data.
  • In Hungary
  • List of Countries
  • For 7 days
  • Water Temperature
  • Satellite Maps
  • Weather Map
  • News
  • Weather Widgets
  • user-avatar
    Login

    Hourly Weather Dara

    Today, 19 December, Wednesday

    Time Temperature Precipitation Wind Pressure Humidity
    00:00 +12°C° 0 mm 3 mps 717 mmHg 67%
    01:00 +13°C° 0 mm 2 mps 717 mmHg 66%
    02:00 +11°C° 0 mm 3 mps 716 mmHg 63%
    03:00 +11°C° 0 mm 3 mps 716 mmHg 62%
    04:00 +11°C° 0 mm 3 mps 716 mmHg 60%
    05:00 +11°C° 0 mm 3 mps 716 mmHg 59%
    06:00 +11°C° 0 mm 3 mps 716 mmHg 57%
    07:00 +13°C° 0 mm 2 mps 716 mmHg 54%
    08:00 +13°C° 0 mm 2 mps 716 mmHg 52%
    09:00 +13°C° 0 mm 3 mps 716 mmHg 49%
    10:00 +14°C° 0 mm 3 mps 716 mmHg 47%
    11:00 +17°C° 0 mm 3 mps 716 mmHg 44%
    12:00 +17°C° 0.1 mm 4 mps 715 mmHg 45%
    13:00 +16°C° 0.1 mm 5 mps 715 mmHg 47%
    14:00 +16°C° 0.1 mm 6 mps 715 mmHg 49%
    15:00 +15°C° 0.4 mm 6 mps 714 mmHg 56%
    16:00 +14°C° 0.4 mm 6 mps 714 mmHg 64%
    17:00 +13°C° 0.4 mm 6 mps 714 mmHg 71%
    18:00 +12°C° 0.3 mm 5 mps 714 mmHg 73%
    19:00 +12°C° 0.3 mm 5 mps 714 mmHg 75%
    20:00 +11°C° 0.3 mm 4 mps 714 mmHg 77%
    21:00 +11°C° 0.4 mm 4 mps 714 mmHg 78%
    22:00 +11°C° 0.4 mm 4 mps 714 mmHg 78%
    23:00 +11°C° 0.4 mm 4 mps 714 mmHg 79%

    Tomorrow, 20 December, Thursday

    Time Temperature Precipitation Wind Pressure Humidity
    00:00 +10°C° 1.2 mm 5 mps 714 mmHg 80%
    01:00 +9°C° 1.2 mm 6 mps 714 mmHg 81%
    02:00 +9°C° 1.2 mm 7 mps 714 mmHg 82%
    03:00 +9°C° 0.6 mm 7 mps 714 mmHg 83%
    04:00 +9°C° 0.6 mm 8 mps 714 mmHg 84%
    05:00 +9°C° 0.6 mm 8 mps 714 mmHg 85%
    06:00 +9°C° 0.1 mm 8 mps 714 mmHg 84%
    07:00 +10°C° 0.1 mm 7 mps 715 mmHg 83%
    08:00 +10°C° 0.1 mm 7 mps 715 mmHg 82%
    09:00 +10°C° 0.1 mm 7 mps 716 mmHg 78%
    10:00 +11°C° 0.1 mm 7 mps 716 mmHg 75%
    11:00 +12°C° 0.1 mm 7 mps 716 mmHg 71%
    12:00 +12°C° 0.1 mm 7 mps 716 mmHg 70%
    13:00 +12°C° 0.1 mm 7 mps 716 mmHg 70%
    14:00 +13°C° 0.1 mm 6 mps 716 mmHg 69%
    15:00 +13°C° 0.1 mm 6 mps 716 mmHg 72%
    16:00 +12°C° 0.1 mm 5 mps 716 mmHg 76%
    17:00 +12°C° 0.1 mm 4 mps 717 mmHg 79%
    18:00 +12°C° 0 mm 4 mps 717 mmHg 82%
    19:00 +11°C° 0 mm 3 mps 717 mmHg 84%
    20:00 +11°C° 0 mm 3 mps 718 mmHg 87%
    21:00 +12°C° 0 mm 2 mps 718 mmHg 88%
    22:00 +10°C° 0 mm 2 mps 718 mmHg 89%
    23:00 +10°C° 0 mm 2 mps 718 mmHg 90%

    Day after tomorrow, 21 December, Friday

    Time Temperature Precipitation Wind Pressure Humidity
    00:00 +10°C° 0 mm 2 mps 718 mmHg 91%
    01:00 +10°C° 0 mm 2 mps 718 mmHg 91%
    02:00 +10°C° 0 mm 2 mps 718 mmHg 92%
    03:00 +10°C° 0 mm 1 mps 718 mmHg 93%
    04:00 +10°C° 0 mm 1 mps 718 mmHg 93%
    05:00 +10°C° 0 mm 1 mps 718 mmHg 94%
    06:00 +10°C° 0 mm 1 mps 719 mmHg 92%
    07:00 +11°C° 0 mm 1 mps 719 mmHg 89%
    08:00 +11°C° 0 mm 1 mps 720 mmHg 87%
    09:00 +12°C° 0 mm 1 mps 720 mmHg 79%
    10:00 +13°C° 0 mm 1 mps 720 mmHg 71%
    11:00 +14°C° 0 mm 2 mps 720 mmHg 63%
    12:00 +15°C° 0 mm 2 mps 720 mmHg 59%
    13:00 +15°C° 0 mm 2 mps 720 mmHg 55%
    14:00 +16°C° 0 mm 3 mps 719 mmHg 51%
    15:00 +14°C° 0 mm 3 mps 719 mmHg 55%
    16:00 +14°C° 0 mm 3 mps 720 mmHg 60%
    17:00 +14°C° 0 mm 2 mps 720 mmHg 64%
    18:00 +13°C° 0 mm 2 mps 720 mmHg 69%
    19:00 +13°C° 0 mm 2 mps 720 mmHg 73%
    20:00 +12°C° 0 mm 1 mps 720 mmHg 77%
    21:00 +12°C° 0 mm 1 mps 720 mmHg 79%
    22:00 +11°C° 0 mm 1 mps 720 mmHg 80%
    23:00 +11°C° 0 mm 1 mps 720 mmHg 82%

    22 December, Saturday

    Time Temperature Precipitation Wind Pressure Humidity
    00:00 +10°C° 0 mm 0 mps 719 mmHg 82%
    01:00 +9°C° 0 mm 0 mps 719 mmHg 83%
    02:00 +9°C° 0 mm 0 mps 719 mmHg 83%
    03:00 +9°C° 0 mm 0 mps 719 mmHg 84%
    04:00 +9°C° 0 mm 0 mps 719 mmHg 84%
    05:00 +8°C° 0 mm 0 mps 718 mmHg 84%
    06:00 +10°C° 0 mm 1 mps 719 mmHg 80%
    07:00 +11°C° 0 mm 1 mps 719 mmHg 76%
    08:00 +12°C° 0 mm 1 mps 720 mmHg 72%
    09:00 +13°C° 0 mm 1 mps 720 mmHg 66%
    10:00 +14°C° 0 mm 1 mps 720 mmHg 59%
    11:00 +15°C° 0 mm 2 mps 720 mmHg 52%
    12:00 +15°C° 0 mm 2 mps 719 mmHg 51%
    13:00 +16°C° 0 mm 2 mps 719 mmHg 49%
    14:00 +16°C° 0 mm 3 mps 718 mmHg 47%
    15:00 +15°C° 0 mm 2 mps 718 mmHg 52%
    16:00 +14°C° 0 mm 2 mps 718 mmHg 57%
    17:00 +14°C° 0 mm 2 mps 718 mmHg 62%
    18:00 +13°C° 0 mm 2 mps 718 mmHg 66%
    19:00 +13°C° 0 mm 2 mps 718 mmHg 70%
    20:00 +12°C° 0 mm 1 mps 718 mmHg 74%
    21:00 +12°C° 0 mm 1 mps 718 mmHg 75%
    22:00 +11°C° 0 mm 1 mps 718 mmHg 77%
    23:00 +11°C° 0 mm 1 mps 718 mmHg 79%

    23 December, Sunday

    Time Temperature Precipitation Wind Pressure Humidity
    00:00 +10°C° 0 mm 1 mps 718 mmHg 80%
    01:00 +10°C° 0 mm 1 mps 718 mmHg 81%
    02:00 +10°C° 0 mm 1 mps 718 mmHg 82%
    03:00 +9°C° 0 mm 0 mps 718 mmHg 82%
    04:00 +8°C° 0 mm 0 mps 718 mmHg 83%
    05:00 +8°C° 0 mm 0 mps 718 mmHg 83%
    06:00 +9°C° 0 mm 0 mps 718 mmHg 79%
    07:00 +10°C° 0 mm 0 mps 719 mmHg 75%
    08:00 +10°C° 0 mm 0 mps 719 mmHg 71%
    09:00 +13°C° 0 mm 1 mps 719 mmHg 67%
    10:00 +14°C° 0 mm 1 mps 719 mmHg 64%
    11:00 +15°C° 0 mm 1 mps 719 mmHg 60%
    12:00 +15°C° 0 mm 2 mps 719 mmHg 59%
    13:00 +16°C° 0 mm 2 mps 719 mmHg 58%
    14:00 +16°C° 0 mm 3 mps 718 mmHg 56%
    15:00 +16°C° 0 mm 3 mps 718 mmHg 62%
    16:00 +14°C° 0 mm 3 mps 718 mmHg 67%
    17:00 +13°C° 0 mm 3 mps 718 mmHg 73%
    18:00 +13°C° 0 mm 2 mps 718 mmHg 77%
    19:00 +13°C° 0 mm 2 mps 719 mmHg 82%
    20:00 +12°C° 0 mm 1 mps 719 mmHg 86%
    21:00 +12°C° 0 mm 1 mps 719 mmHg 87%
    22:00 +12°C° 0 mm 1 mps 719 mmHg 88%
    23:00 +11°C° 0 mm 1 mps 719 mmHg 90%

    24 December, Monday

    Time Temperature Precipitation Wind Pressure Humidity
    00:00 +11°C° 0 mm 1 mps 718 mmHg 90%
    01:00 +11°C° 0 mm 1 mps 718 mmHg 90%
    02:00 +10°C° 0 mm 1 mps 718 mmHg 91%
    03:00 +10°C° 0 mm 1 mps 718 mmHg 91%
    04:00 +10°C° 0 mm 1 mps 718 mmHg 91%
    05:00 +9°C° 0 mm 0 mps 718 mmHg 91%
    06:00 +9°C° 0 mm 0 mps 718 mmHg 87%
    07:00 +10°C° 0 mm 0 mps 718 mmHg 83%
    08:00 +12°C° 0 mm 1 mps 719 mmHg 79%
    09:00 +13°C° 0 mm 1 mps 719 mmHg 72%
    10:00 +14°C° 0 mm 1 mps 718 mmHg 65%
    11:00 +15°C° 0 mm 1 mps 718 mmHg 58%
    12:00 +16°C° 0 mm 1 mps 718 mmHg 54%
    13:00 +16°C° 0 mm 1 mps 718 mmHg 51%
    14:00 +17°C° 0 mm 2 mps 717 mmHg 47%
    15:00 +16°C° 0 mm 2 mps 717 mmHg 51%
    16:00 +15°C° 0 mm 1 mps 717 mmHg 55%
    17:00 +14°C° 0 mm 1 mps 717 mmHg 59%
    18:00 +14°C° 0 mm 1 mps 717 mmHg 62%
    19:00 +13°C° 0 mm 1 mps 717 mmHg 64%
    20:00 +13°C° 0 mm 1 mps 717 mmHg 67%
    21:00 +12°C° 0 mm 1 mps 717 mmHg 67%
    22:00 +12°C° 0 mm 1 mps 717 mmHg 67%
    23:00 +11°C° 0 mm 1 mps 717 mmHg 68%
    Show more